QPF
0.01 0.00 0.01 0.01 0.00 0.00 0.00 0.00 0.00 0.00 0.00 0.00 0.00 0.00 0.00 0.00 0.00 0.00 0.00 0.00 0.00 0.00 0.00 0.00 0.00 0.00 0.00 0.00 0.01 0.02 0.02 0.01 0.01 0.01 0.01 0.01 0.01 0.01 0.02 0.03 0.05 0.05 0.07
0.00 0.00 0.01 0.01 0.00 0.00 0.00 0.00 0.00 0.00 0.00 0.00 0.00 0.00 0.00 0.00 0.00 0.00 0.00 0.00 0.00 0.00 0.00 0.00 0.01 0.01 0.01 0.01 0.01 0.03 0.02 0.01 0.00 0.01 0.02 0.01 0.01 0.01 0.02 0.03 0.05 0.05 0.05
0.00 0.00 0.00 0.00 0.00 0.00 0.00 0.00 0.00 0.00 0.00 0.00 0.00 0.00 0.00 0.00 0.00 0.00 0.00 0.00 0.00 0.00 0.00 0.00 0.01 0.01 0.01 0.01 0.02 0.03 0.02 0.02 0.01 0.02 0.02 0.02 0.01 0.02 0.01 0.01 0.03 0.04 0.04
0.00 0.00 0.00 0.00 0.00 0.00 0.00 0.00 0.00 0.00 0.00 0.00 0.00 0.00 0.00 0.00 0.00 0.00 0.00 0.00 0.00 0.00 0.00 0.00 0.00 0.00 0.00 0.01 0.01 0.01 0.02 0.02 0.03 0.04 0.02 0.02 0.01 0.01 0.01 0.01 0.02 0.02 0.03
0.00 0.00 0.00 0.00 0.00 0.00 0.00 0.00 0.00 0.00 0.00 0.00 0.00 0.00 0.00 0.00 0.00 0.00 0.00 0.00 0.00 0.00 0.00 0.00 0.00 0.00 0.00 0.00 0.01 0.01 0.02 0.03 0.05 0.05 0.02 0.01 0.01 0.01 0.01 0.01 0.02 0.02 0.03
0.00 0.00 0.00 0.00 0.00 0.00 0.00 0.00 0.00 0.00 0.00 0.00 0.00 0.00 0.00 0.00 0.00 0.00 0.00 0.00 0.00 0.00 0.00 0.00 0.00 0.00 0.00 0.00 0.01 0.01 0.02 0.04 0.04 0.04 0.02 0.01 0.01 0.01 0.01 0.01 0.01 0.02 0.04
0.02 0.00 0.00 0.01 0.00 0.00 0.00 0.00 0.00 0.00 0.00 0.00 0.00 0.00 0.00 0.00 0.00 0.00 0.00 0.00 0.00 0.00 0.00 0.00 0.00 0.00 0.00 0.01 0.01 0.01 0.01 0.02 0.03 0.05 0.05 0.03 0.01 0.01 0.01 0.01 0.01 0.01 0.03
0.08 0.05 0.03 0.03 0.02 0.02 0.01 0.01 0.01 0.00 0.00 0.00 0.00 0.00 0.00 0.00 0.00 0.00 0.00 0.00 0.00 0.00 0.00 0.00 0.00 0.00 0.00 0.00 0.01 0.01 0.01 0.02 0.04 0.07 0.07 0.03 0.02 0.01 0.01 0.01 0.01 0.01 0.02
0.25 0.25 0.13 0.09 0.07 0.06 0.05 0.03 0.03 0.02 0.01 0.01 0.01 0.01 0.00 0.00 0.00 0.00 0.00 0.00 0.00 0.00 0.00 0.00 0.00 0.00 0.00 0.00 0.00 0.01 0.01 0.01 0.04 0.08 0.05 0.04 0.04 0.02 0.01 0.01 0.01 0.01 0.02
0.29 0.29 0.24 0.19 0.15 0.11 0.09 0.09 0.08 0.07 0.05 0.03 0.03 0.02 0.01 0.00 0.00 0.00 0.00 0.00 0.00 0.00 0.00 0.00 0.00 0.00 0.00 0.00 0.00 0.00 0.01 0.02 0.06 0.08 0.05 0.05 0.06 0.03 0.02 0.01 0.01 0.01 0.01
0.24 0.28 0.30 0.28 0.28 0.27 0.22 0.18 0.16 0.12 0.10 0.07 0.04 0.04 0.02 0.01 0.00 0.00 0.00 0.00 0.00 0.00 0.00 0.00 0.00 0.00 0.00 0.00 0.00 0.01 0.01 0.03 0.08 0.08 0.05 0.05 0.06 0.03 0.01 0.01 0.01 0.00 0.00
0.21 0.23 0.26 0.29 0.33 0.35 0.30 0.27 0.24 0.16 0.13 0.10 0.06 0.04 0.02 0.01 0.01 0.01 0.01 0.03 0.03 0.01 0.00 0.00 0.00 0.00 0.00 0.00 0.00 0.00 0.01 0.04 0.08 0.07 0.04 0.06 0.05 0.03 0.01 0.01 0.01 0.00 0.00
0.19 0.22 0.22 0.24 0.30 0.31 0.31 0.32 0.35 0.27 0.16 0.10 0.07 0.07 0.06 0.05 0.04 0.03 0.02 0.03 0.04 0.02 0.01 0.00 0.00 0.00 0.00 0.00 0.00 0.00 0.02 0.04 0.05 0.05 0.03 0.05 0.04 0.02 0.01 0.01 0.01 0.01 0.01
0.11 0.14 0.15 0.16 0.19 0.23 0.28 0.28 0.37 0.40 0.25 0.14 0.10 0.12 0.13 0.11 0.10 0.10 0.06 0.05 0.03 0.02 0.01 0.00 0.00 0.00 0.00 0.00 0.00 0.01 0.02 0.03 0.03 0.04 0.03 0.03 0.03 0.02 0.01 0.01 0.01 0.01 0.01
0.05 0.07 0.08 0.07 0.10 0.13 0.16 0.19 0.30 0.38 0.36 0.30 0.20 0.17 0.18 0.18 0.16 0.13 0.11 0.09 0.05 0.02 0.01 0.01 0.00 0.01 0.01 0.00 0.00 0.02 0.03 0.02 0.02 0.02 0.01 0.01 0.02 0.01 0.00 0.01 0.01 0.01 0.01
0.02 0.03 0.04 0.04 0.05 0.07 0.09 0.12 0.17 0.25 0.28 0.30 0.27 0.25 0.25 0.27 0.22 0.17 0.13 0.11 0.11 0.08 0.06 0.02 0.01 0.01 0.00 0.00 0.00 0.01 0.02 0.02 0.03 0.01 0.01 0.01 0.01 0.01 0.01 0.01 0.01 0.01 0.01
0.00 0.00 0.00 0.01 0.02 0.03 0.03 0.04 0.05 0.06 0.09 0.13 0.18 0.23 0.27 0.27 0.21 0.16 0.15 0.13 0.14 0.14 0.10 0.07 0.03 0.01 0.00 0.00 0.00 0.00 0.00 0.01 0.02 0.01 0.00 0.00 0.00 0.00 0.01 0.01 0.01 0.00 0.00
0.00 0.00 0.00 0.00 0.00 0.01 0.01 0.02 0.02 0.03 0.06 0.07 0.13 0.21 0.23 0.27 0.25 0.18 0.18 0.20 0.19 0.18 0.15 0.10 0.08 0.04 0.02 0.01 0.00 0.00 0.00 0.00 0.00 0.01 0.00 0.00 0.00 0.00 0.00 0.01 0.01 0.01 0.01
0.00 0.00 0.00 0.00 0.00 0.00 0.00 0.02 0.03 0.03 0.03 0.04 0.06 0.10 0.12 0.13 0.19 0.18 0.18 0.22 0.24 0.22 0.18 0.13 0.10 0.07 0.05 0.03 0.01 0.01 0.00 0.00 0.01 0.01 0.00 0.01 0.01 0.01 0.00 0.00 0.00 0.00 0.00
0.00 0.00 0.00 0.00 0.00 0.00 0.00 0.00 0.01 0.02 0.02 0.02 0.03 0.05 0.09 0.09 0.11 0.13 0.16 0.19 0.23 0.24 0.22 0.21 0.17 0.10 0.06 0.04 0.04 0.03 0.01 0.01 0.02 0.01 0.01 0.01 0.01 0.01 0.01 0.00 0.00 0.00 0.00
0.00 0.00 0.00 0.00 0.00 0.01 0.00 0.00 0.00 0.01 0.01 0.01 0.02 0.02 0.05 0.07 0.08 0.10 0.14 0.19 0.22 0.24 0.24 0.24 0.21 0.13 0.08 0.07 0.06 0.05 0.03 0.03 0.04 0.04 0.03 0.02 0.02 0.02 0.02 0.01 0.01 0.00 0.00
0.00 0.00 0.00 0.00 0.00 0.01 0.01 0.01 0.01 0.01 0.01 0.01 0.01 0.02 0.03 0.05 0.07 0.08 0.11 0.13 0.16 0.19 0.22 0.21 0.19 0.14 0.11 0.11 0.09 0.07 0.04 0.04 0.05 0.05 0.04 0.04 0.05 0.04 0.04 0.03 0.02 0.02 0.00
0.00 0.00 0.01 0.01 0.01 0.01 0.02 0.02 0.03 0.03 0.02 0.02 0.02 0.02 0.03 0.04 0.05 0.06 0.07 0.08 0.10 0.12 0.14 0.17 0.18 0.15 0.14 0.12 0.11 0.08 0.03 0.02 0.03 0.05 0.06 0.07 0.07 0.06 0.07 0.07 0.05 0.05 0.04
0.00 0.01 0.01 0.01 0.02 0.03 0.04 0.05 0.05 0.04 0.03 0.02 0.02 0.02 0.03 0.04 0.05 0.05 0.06 0.07 0.08 0.09 0.11 0.14 0.16 0.16 0.17 0.15 0.11 0.07 0.04 0.03 0.03 0.03 0.05 0.09 0.08 0.07 0.07 0.06 0.05 0.05 0.04
0.01 0.01 0.02 0.02 0.02 0.03 0.04 0.05 0.06 0.05 0.04 0.04 0.03 0.04 0.04 0.04 0.05 0.06 0.08 0.10 0.10 0.12 0.12 0.16 0.19 0.20 0.17 0.16 0.13 0.10 0.08 0.06 0.04 0.03 0.04 0.07 0.10 0.09 0.08 0.07 0.07 0.06 0.06
0.01 0.02 0.02 0.02 0.03 0.04 0.05 0.06 0.06 0.08 0.07 0.06 0.06 0.06 0.06 0.06 0.08 0.09 0.09 0.11 0.12 0.14 0.16 0.16 0.18 0.23 0.24 0.21 0.19 0.14 0.11 0.08 0.07 0.06 0.05 0.05 0.08 0.10 0.09 0.09 0.09 0.09 0.09
MSLP
1015.76 1015.20 1014.78 1014.54 1014.48 1014.58 1014.77 1014.98 1015.16 1015.26 1015.30 1015.29 1015.27 1015.29 1015.36 1015.50 1015.68 1015.87 1016.05 1016.19 1016.27 1016.30 1016.30 1016.29 1016.28 1016.28 1016.30 1016.33 1016.35 1016.36 1016.34 1016.29 1016.23 1016.15 1016.09 1016.03 1015.98 1015.94 1015.90 1015.86 1015.81 1015.77 1015.74
1015.49 1015.00 1014.64 1014.46 1014.46 1014.58 1014.79 1015.00 1015.17 1015.26 1015.30 1015.30 1015.31 1015.35 1015.45 1015.60 1015.79 1015.98 1016.14 1016.26 1016.32 1016.35 1016.35 1016.35 1016.36 1016.38 1016.42 1016.45 1016.47 1016.46 1016.43 1016.38 1016.32 1016.26 1016.21 1016.17 1016.14 1016.11 1016.07 1016.01 1015.95 1015.89 1015.85
1015.13 1014.72 1014.45 1014.34 1014.40 1014.58 1014.81 1015.04 1015.21 1015.32 1015.36 1015.38 1015.41 1015.47 1015.58 1015.74 1015.91 1016.07 1016.19 1016.27 1016.31 1016.31 1016.31 1016.32 1016.34 1016.39 1016.45 1016.49 1016.52 1016.52 1016.50 1016.45 1016.41 1016.37 1016.34 1016.33 1016.32 1016.30 1016.27 1016.21 1016.14 1016.08 1016.02
1014.76 1014.43 1014.24 1014.22 1014.35 1014.58 1014.84 1015.09 1015.27 1015.39 1015.44 1015.48 1015.52 1015.60 1015.72 1015.87 1016.01 1016.14 1016.22 1016.25 1016.24 1016.22 1016.21 1016.23 1016.27 1016.35 1016.42 1016.50 1016.54 1016.55 1016.54 1016.51 1016.49 1016.48 1016.48 1016.50 1016.52 1016.52 1016.49 1016.44 1016.38 1016.30 1016.25
1014.45 1014.19 1014.08 1014.14 1014.33 1014.60 1014.89 1015.14 1015.32 1015.43 1015.49 1015.53 1015.59 1015.69 1015.81 1015.95 1016.08 1016.17 1016.21 1016.20 1016.16 1016.12 1016.11 1016.13 1016.20 1016.29 1016.40 1016.49 1016.55 1016.58 1016.59 1016.58 1016.57 1016.59 1016.62 1016.66 1016.70 1016.72 1016.71 1016.67 1016.61 1016.55 1016.50
1014.28 1014.07 1014.02 1014.14 1014.37 1014.66 1014.94 1015.17 1015.32 1015.41 1015.45 1015.50 1015.57 1015.68 1015.83 1015.98 1016.10 1016.18 1016.19 1016.16 1016.10 1016.05 1016.04 1016.07 1016.16 1016.28 1016.40 1016.51 1016.59 1016.63 1016.64 1016.64 1016.65 1016.68 1016.73 1016.79 1016.85 1016.89 1016.89 1016.86 1016.82 1016.76 1016.72
1014.30 1014.12 1014.10 1014.24 1014.48 1014.75 1014.99 1015.16 1015.26 1015.30 1015.31 1015.35 1015.44 1015.58 1015.75 1015.93 1016.07 1016.16 1016.18 1016.14 1016.09 1016.04 1016.04 1016.09 1016.19 1016.33 1016.46 1016.58 1016.66 1016.70 1016.71 1016.71 1016.72 1016.75 1016.81 1016.88 1016.95 1017.00 1017.01 1017.00 1016.96 1016.92 1016.89
1014.52 1014.34 1014.33 1014.46 1014.67 1014.88 1015.04 1015.12 1015.13 1015.10 1015.08 1015.11 1015.21 1015.38 1015.60 1015.82 1016.00 1016.12 1016.17 1016.16 1016.12 1016.09 1016.10 1016.17 1016.29 1016.43 1016.57 1016.68 1016.75 1016.78 1016.78 1016.77 1016.77 1016.79 1016.85 1016.92 1016.99 1017.05 1017.07 1017.07 1017.04 1017.01 1016.98
1014.91 1014.72 1014.70 1014.79 1014.93 1015.04 1015.09 1015.06 1014.97 1014.87 1014.80 1014.82 1014.93 1015.14 1015.40 1015.67 1015.91 1016.07 1016.16 1016.18 1016.17 1016.17 1016.20 1016.28 1016.41 1016.55 1016.69 1016.79 1016.84 1016.85 1016.82 1016.79 1016.78 1016.80 1016.85 1016.92 1016.99 1017.06 1017.09 1017.10 1017.08 1017.05 1017.03
1015.40 1015.21 1015.15 1015.19 1015.24 1015.25 1015.18 1015.03 1014.83 1014.65 1014.54 1014.54 1014.66 1014.90 1015.20 1015.51 1015.79 1015.99 1016.12 1016.17 1016.19 1016.22 1016.28 1016.37 1016.50 1016.64 1016.76 1016.85 1016.88 1016.87 1016.82 1016.78 1016.75 1016.77 1016.82 1016.89 1016.98 1017.05 1017.10 1017.11 1017.11 1017.09 1017.08
1015.93 1015.74 1015.66 1015.63 1015.59 1015.49 1015.30 1015.04 1014.75 1014.50 1014.34 1014.32 1014.45 1014.70 1015.01 1015.35 1015.64 1015.87 1016.01 1016.10 1016.14 1016.19 1016.27 1016.38 1016.51 1016.65 1016.76 1016.83 1016.85 1016.82 1016.77 1016.72 1016.69 1016.71 1016.77 1016.86 1016.96 1017.05 1017.12 1017.16 1017.17 1017.16 1017.16
1016.42 1016.24 1016.14 1016.07 1015.94 1015.74 1015.45 1015.09 1014.73 1014.42 1014.23 1014.19 1014.30 1014.54 1014.85 1015.17 1015.46 1015.68 1015.82 1015.91 1015.98 1016.05 1016.14 1016.26 1016.41 1016.55 1016.66 1016.73 1016.74 1016.70 1016.65 1016.60 1016.59 1016.62 1016.70 1016.82 1016.95 1017.07 1017.17 1017.23 1017.26 1017.28 1017.28
1016.83 1016.68 1016.56 1016.44 1016.24 1015.96 1015.59 1015.17 1014.76 1014.42 1014.20 1014.14 1014.22 1014.42 1014.69 1014.96 1015.21 1015.40 1015.53 1015.61 1015.69 1015.77 1015.89 1016.03 1016.19 1016.34 1016.46 1016.53 1016.54 1016.51 1016.46 1016.43 1016.44 1016.50 1016.61 1016.76 1016.93 1017.09 1017.22 1017.33 1017.39 1017.43 1017.45
1017.14 1017.00 1016.87 1016.70 1016.45 1016.11 1015.69 1015.23 1014.80 1014.44 1014.21 1014.12 1014.16 1014.31 1014.50 1014.71 1014.89 1015.03 1015.13 1015.21 1015.29 1015.40 1015.55 1015.72 1015.90 1016.06 1016.19 1016.26 1016.28 1016.26 1016.23 1016.21 1016.24 1016.33 1016.48 1016.66 1016.87 1017.08 1017.26 1017.40 1017.50 1017.58 1017.63
1017.35 1017.21 1017.06 1016.84 1016.54 1016.15 1015.70 1015.23 1014.80 1014.45 1014.21 1014.09 1014.09 1014.16 1014.27 1014.40 1014.50 1014.59 1014.66 1014.74 1014.84 1014.98 1015.16 1015.36 1015.57 1015.75 1015.88 1015.96 1015.98 1015.97 1015.95 1015.95 1016.01 1016.12 1016.29 1016.51 1016.76 1017.00 1017.22 1017.41 1017.56 1017.67 1017.76
1017.49 1017.32 1017.11 1016.84 1016.48 1016.06 1015.60 1015.14 1014.73 1014.39 1014.15 1014.01 1013.95 1013.96 1013.99 1014.03 1014.06 1014.10 1014.16 1014.25 1014.38 1014.57 1014.79 1015.03 1015.26 1015.46 1015.59 1015.67 1015.69 1015.67 1015.66 1015.67 1015.73 1015.86 1016.06 1016.30 1016.56 1016.84 1017.09 1017.32 1017.51 1017.66 1017.80
1017.60 1017.37 1017.08 1016.73 1016.32 1015.87 1015.40 1014.96 1014.58 1014.26 1014.03 1013.87 1013.76 1013.70 1013.65 1013.62 1013.61 1013.62 1013.68 1013.80 1013.98 1014.21 1014.48 1014.76 1015.02 1015.22 1015.35 1015.41 1015.42 1015.40 1015.38 1015.39 1015.45 1015.59 1015.78 1016.03 1016.30 1016.59 1016.86 1017.12 1017.34 1017.54 1017.72
1017.71 1017.38 1017.00 1016.56 1016.09 1015.61 1015.15 1014.73 1014.38 1014.09 1013.86 1013.68 1013.54 1013.41 1013.31 1013.22 1013.17 1013.18 1013.26 1013.42 1013.65 1013.94 1014.26 1014.57 1014.84 1015.04 1015.16 1015.21 1015.20 1015.16 1015.13 1015.14 1015.20 1015.33 1015.52 1015.75 1016.02 1016.30 1016.57 1016.84 1017.08 1017.31 1017.52
1017.85 1017.40 1016.91 1016.39 1015.86 1015.35 1014.90 1014.51 1014.18 1013.92 1013.70 1013.50 1013.32 1013.15 1012.99 1012.86 1012.80 1012.81 1012.91 1013.11 1013.40 1013.74 1014.09 1014.42 1014.70 1014.90 1015.01 1015.04 1015.02 1014.97 1014.94 1014.94 1015.00 1015.12 1015.30 1015.51 1015.76 1016.01 1016.26 1016.52 1016.76 1017.01 1017.25
1018.01 1017.46 1016.87 1016.26 1015.69 1015.17 1014.72 1014.36 1014.06 1013.81 1013.59 1013.38 1013.16 1012.94 1012.74 1012.58 1012.50 1012.51 1012.64 1012.87 1013.19 1013.56 1013.94 1014.28 1014.56 1014.75 1014.85 1014.87 1014.85 1014.82 1014.80 1014.82 1014.88 1015.00 1015.16 1015.35 1015.56 1015.78 1015.99 1016.22 1016.45 1016.69 1016.94
1018.18 1017.55 1016.89 1016.23 1015.63 1015.10 1014.67 1014.33 1014.05 1013.82 1013.59 1013.36 1013.10 1012.83 1012.59 1012.39 1012.28 1012.27 1012.40 1012.64 1012.97 1013.35 1013.73 1014.07 1014.34 1014.53 1014.63 1014.67 1014.68 1014.68 1014.70 1014.75 1014.84 1014.97 1015.13 1015.30 1015.46 1015.63 1015.80 1015.97 1016.17 1016.39 1016.64
1018.35 1017.68 1016.98 1016.31 1015.70 1015.18 1014.77 1014.45 1014.18 1013.95 1013.71 1013.44 1013.14 1012.82 1012.52 1012.27 1012.11 1012.07 1012.17 1012.39 1012.69 1013.05 1013.41 1013.74 1014.00 1014.19 1014.31 1014.39 1014.45 1014.51 1014.59 1014.71 1014.85 1015.01 1015.17 1015.32 1015.46 1015.57 1015.68 1015.80 1015.94 1016.13 1016.36
1018.50 1017.83 1017.14 1016.47 1015.88 1015.39 1015.00 1014.69 1014.43 1014.19 1013.93 1013.62 1013.27 1012.89 1012.52 1012.20 1011.98 1011.87 1011.91 1012.06 1012.31 1012.62 1012.93 1013.23 1013.48 1013.68 1013.84 1013.98 1014.11 1014.27 1014.44 1014.64 1014.85 1015.06 1015.24 1015.39 1015.50 1015.57 1015.62 1015.68 1015.77 1015.91 1016.10
1018.60 1017.98 1017.33 1016.70 1016.14 1015.68 1015.30 1015.01 1014.75 1014.49 1014.20 1013.85 1013.44 1013.00 1012.56 1012.16 1011.85 1011.66 1011.60 1011.66 1011.82 1012.05 1012.30 1012.56 1012.80 1013.02 1013.22 1013.43 1013.66 1013.91 1014.19 1014.49 1014.78 1015.05 1015.27 1015.43 1015.52 1015.56 1015.58 1015.58 1015.62 1015.71 1015.87
1018.68 1018.12 1017.53 1016.95 1016.43 1015.99 1015.63 1015.34 1015.07 1014.79 1014.47 1014.08 1013.62 1013.12 1012.61 1012.13 1011.73 1011.43 1011.26 1011.21 1011.26 1011.39 1011.57 1011.77 1011.99 1012.22 1012.47 1012.75 1013.07 1013.42 1013.80 1014.20 1014.58 1014.91 1015.17 1015.36 1015.46 1015.50 1015.49 1015.47 1015.47 1015.52 1015.64
1018.73 1018.24 1017.71 1017.18 1016.70 1016.27 1015.92 1015.62 1015.34 1015.04 1014.70 1014.28 1013.79 1013.24 1012.67 1012.13 1011.64 1011.24 1010.95 1010.78 1010.71 1010.73 1010.82 1010.96 1011.15 1011.38 1011.66 1011.99 1012.37 1012.81 1013.27 1013.74 1014.19 1014.59 1014.91 1015.14 1015.28 1015.34 1015.34 1015.32 1015.31 1015.34 1015.43
Thickness
5787 5788 5787 5786 5785 5784 5782 5781 5780 5779 5778 5777 5775 5774 5773 5773 5772 5771 5771 5770 5770 5770 5770 5769 5769 5769 5770 5770 5771 5771 5772 5772 5773 5773 5774 5775 5775 5776 5776 5775 5774 5773 5771
5791 5789 5788 5787 5786 5784 5783 5782 5780 5779 5778 5777 5776 5775 5774 5773 5772 5771 5770 5770 5769 5769 5768 5768 5767 5767 5768 5768 5769 5769 5770 5770 5770 5771 5771 5772 5773 5773 5774 5773 5773 5771 5770
5792 5789 5788 5787 5786 5784 5783 5782 5781 5780 5779 5777 5776 5775 5774 5773 5772 5771 5770 5769 5769 5768 5767 5767 5766 5766 5766 5766 5767 5767 5767 5768 5768 5769 5769 5769 5770 5770 5771 5771 5771 5770 5769
5792 5789 5788 5786 5785 5784 5783 5782 5781 5780 5779 5778 5776 5775 5774 5773 5772 5771 5770 5769 5768 5767 5766 5766 5765 5765 5765 5765 5765 5766 5765 5765 5766 5767 5766 5767 5767 5768 5768 5769 5768 5768 5767
5791 5789 5787 5786 5785 5784 5782 5781 5780 5779 5778 5777 5776 5775 5774 5773 5772 5771 5770 5769 5768 5767 5766 5765 5765 5764 5764 5764 5764 5764 5764 5763 5763 5763 5764 5764 5764 5765 5766 5766 5766 5765 5765
5791 5789 5787 5785 5784 5783 5782 5781 5779 5778 5777 5776 5775 5774 5773 5772 5771 5770 5769 5768 5767 5766 5766 5765 5764 5764 5763 5763 5763 5763 5763 5762 5761 5761 5761 5761 5762 5762 5763 5763 5764 5763 5763
5790 5788 5786 5785 5783 5782 5781 5779 5778 5777 5776 5774 5774 5773 5772 5771 5770 5769 5769 5768 5767 5766 5765 5764 5764 5763 5763 5762 5762 5762 5762 5761 5760 5759 5759 5759 5760 5760 5761 5761 5762 5761 5761
5788 5785 5784 5783 5782 5780 5779 5777 5776 5775 5774 5773 5772 5771 5771 5770 5769 5768 5768 5767 5766 5765 5765 5764 5763 5763 5762 5762 5762 5761 5761 5760 5759 5759 5758 5758 5759 5759 5759 5759 5760 5759 5759
5783 5781 5780 5779 5778 5777 5777 5776 5775 5774 5773 5772 5771 5770 5769 5769 5768 5767 5767 5766 5765 5765 5764 5763 5763 5762 5762 5762 5761 5761 5760 5759 5759 5758 5758 5758 5758 5758 5758 5758 5758 5758 5757
5777 5775 5775 5774 5773 5772 5772 5772 5772 5771 5771 5770 5770 5769 5768 5767 5767 5766 5766 5765 5765 5764 5764 5763 5762 5762 5762 5761 5761 5761 5760 5759 5758 5758 5758 5758 5758 5757 5757 5757 5757 5756 5756
5769 5769 5769 5769 5768 5767 5768 5768 5769 5769 5768 5768 5768 5768 5767 5766 5765 5765 5764 5764 5764 5763 5763 5762 5762 5762 5761 5761 5761 5761 5760 5758 5758 5758 5758 5758 5757 5757 5757 5756 5756 5755 5755
5759 5761 5762 5764 5763 5763 5764 5765 5766 5766 5766 5765 5765 5766 5766 5765 5764 5763 5763 5763 5763 5762 5762 5762 5761 5761 5761 5761 5761 5760 5760 5758 5758 5758 5758 5758 5757 5757 5756 5756 5755 5754 5754
5752 5754 5756 5757 5758 5759 5760 5761 5762 5762 5762 5762 5762 5763 5763 5762 5761 5761 5761 5761 5761 5761 5761 5761 5760 5760 5760 5760 5760 5760 5759 5758 5758 5758 5758 5757 5757 5757 5756 5755 5755 5754 5753
5745 5747 5748 5750 5752 5753 5754 5755 5756 5757 5758 5758 5759 5759 5759 5759 5759 5759 5760 5760 5760 5760 5760 5760 5759 5759 5759 5760 5759 5759 5759 5758 5758 5758 5758 5757 5757 5756 5756 5755 5754 5753 5753
5736 5738 5740 5742 5743 5745 5746 5748 5750 5752 5753 5754 5755 5756 5757 5756 5756 5757 5757 5758 5759 5759 5758 5758 5757 5757 5758 5758 5759 5759 5759 5758 5758 5758 5757 5757 5757 5756 5755 5755 5754 5753 5752
5727 5728 5731 5733 5735 5736 5738 5740 5743 5745 5747 5749 5750 5752 5753 5753 5753 5754 5754 5754 5755 5756 5756 5756 5756 5756 5757 5758 5759 5760 5760 5759 5758 5757 5757 5757 5756 5756 5755 5754 5753 5752 5752
5716 5718 5721 5724 5725 5726 5728 5731 5735 5737 5740 5743 5745 5747 5748 5749 5750 5752 5752 5752 5753 5753 5753 5753 5754 5754 5755 5756 5757 5759 5760 5760 5758 5757 5756 5756 5755 5755 5754 5754 5753 5752 5751
5707 5708 5711 5714 5715 5717 5719 5721 5725 5728 5732 5735 5738 5741 5743 5745 5747 5748 5748 5749 5750 5750 5750 5750 5751 5751 5752 5753 5754 5757 5759 5759 5758 5756 5755 5755 5754 5754 5753 5753 5752 5751 5750
5698 5698 5700 5703 5705 5707 5709 5712 5715 5718 5722 5726 5730 5733 5736 5739 5742 5743 5744 5745 5746 5747 5747 5747 5747 5747 5748 5749 5751 5754 5756 5756 5755 5754 5753 5753 5753 5753 5752 5752 5751 5750 5749
5689 5690 5692 5693 5695 5697 5700 5702 5704 5707 5711 5716 5720 5724 5728 5731 5734 5736 5739 5741 5742 5742 5742 5742 5742 5743 5744 5745 5747 5748 5750 5752 5752 5752 5751 5751 5751 5751 5751 5750 5749 5749 5748
5680 5681 5682 5684 5686 5687 5689 5690 5692 5695 5700 5705 5711 5715 5719 5723 5727 5729 5732 5735 5736 5737 5738 5737 5737 5736 5738 5740 5738 5737 5741 5745 5746 5748 5748 5748 5748 5748 5748 5748 5747 5747 5746
5670 5672 5674 5675 5677 5679 5681 5682 5684 5687 5691 5695 5700 5705 5710 5714 5718 5722 5725 5728 5730 5731 5732 5732 5732 5731 5732 5734 5731 5726 5725 5729 5736 5743 5744 5744 5745 5746 5745 5745 5744 5744 5744
5663 5664 5666 5667 5669 5671 5674 5676 5678 5680 5682 5685 5689 5694 5699 5704 5709 5714 5718 5720 5723 5726 5727 5728 5728 5727 5725 5727 5729 5724 5718 5717 5724 5732 5737 5740 5741 5741 5742 5742 5741 5741 5741
5657 5659 5661 5662 5663 5665 5667 5667 5667 5668 5670 5675 5679 5684 5689 5695 5700 5705 5710 5713 5716 5719 5721 5723 5725 5725 5723 5720 5722 5724 5726 5725 5719 5719 5726 5732 5735 5736 5737 5739 5739 5738 5738
5654 5655 5656 5657 5658 5659 5661 5661 5661 5662 5665 5668 5672 5676 5681 5686 5692 5697 5702 5705 5709 5712 5715 5717 5719 5720 5720 5718 5717 5718 5718 5719 5721 5717 5715 5720 5725 5729 5732 5734 5735 5735 5735
5652 5652 5652 5651 5652 5654 5655 5656 5657 5657 5659 5661 5664 5667 5672 5677 5683 5688 5693 5698 5701 5705 5708 5711 5713 5714 5715 5715 5715 5714 5714 5713 5714 5714 5712 5713 5715 5720 5725 5728 5730 5731 5731